STARLINK-3649, 51980

Orbit data source: Space-Track

STARLINK-3649, 51980 is a payload satellite owned by SpaceX/Seattle (US) in LEO that was launched on Wed, 09 Mar 2022 UTC via an FALCON 9 launch vehicle from the Air Force Eastern Test Range (AFETR). Payload-class satellites include a variety of spacecraft equipped with specific instruments for various scientific and technological missions. These include communications satellites like Starlink; space stations such as the ISS; scientific satellites like the Hubble; Earth observation satellites from companies like Planet Labs, Umbra, and HawkEye 360; GPS; miniature CubeSats for education and research; and military/defense satellites.

Loading next visibility...
Identifier
51980, 2022-025AA
Orbit
LEO
Country
Flag of USUS
Related business
Manufacturer
SpaceX/Seattle
Mission
Operational Commercial Communications
Bus & Motor
STARLINK, Unknown motor
Mass
297 kg wet, ~275 kg dry
Launch date (UTC)
2022-03-09 (4 years ago)
Launch vehicle
FALCON 9
Launch site
Air Force Eastern Test Range (AFETR)
Object type
Payload
Rocket body
Debris
Shape & HBR
Box + 1 Pan, 10.1 m
Radar Cross Section
13.562 m², Large (>1 m²)

Expand to show TLE details & history
Last TLE update: 16 hours ago

TLE from 16 hours ago
0 STARLINK-3649
1 51980U 22025AA  25346.95859931  .00000226  00000-0  32283-4 0  9995
2 51980  53.2187  68.4710 0001313  90.3974 269.7169 15.08835153207960
Epoch: 2025-12-12T23:00Z
TLE epoch observation values (Epoch: 2025-12-12T23:00:22.980Z)
Latitude
0.00001°
Longitude
1.48251°
Altitude
540.66 km
Speed
7.593 km/s
True Right ascension
04h 33m 53s
True Declination
0° 00' 00"
Sunlit
Object was in full shadow at epoch
Visualization orbit readout
Latitude
Unknown
Longitude
Unknown
Altitude
Unknown
Speed
Unknown
Apparent Right ascension
Unknown
Apparent Declination
Unknown
Sunlit
N/A
Visualization observer readout
Local Sidereal Time
13:11:35
Azimuth
Unknown
Elevation
Unknown
Doppler factor
Unknown
Orbital elements
Apogee altitude
540.911 km
Perigee altitude
539.095 km
Semi-major axis
6,918.14 km
Eccentricity
0.00013
Inclination
53.2187°
RAAN
68.471°
Arg. of periapsis
90.3974°
True anomaly
269.70185°
Mean anomaly
269.7169°
Eccentric anomaly
269.70938°
Mean motion
3.77189 °/min
Orbital period
95.44 mins
BSTAR
0.000032283
Loading maneuver chart data...
Computing Atmospheric mass density...
Loading historical data...
Loading historical data...
Loading historical data...
Loading historical data...
Loading historical data...
Loading historical data...
Loading historical data...

Documentation

Showing up to 5 results
|